Regional Weather Roundup
Issued by NWS

Home | Current Version | Previous Version | Text Only | Print | Product List | Glossary On
Versions: 1 2 3 4 5 6 7 8 9 10 11 12 13 14 15 16 17 18 19 20 21 22 23 24 25 26 27 28
000
ASPQ40 PGUM 171012
RWRPQ
WEATHER ROUNDUP FOR THE MARIANAS AND MICRONESIA
NATIONAL WEATHER SERVICE TIYAN GU
800 PM GSST THU APR 17 2014

GUZ001>004-171100-
MARIANA ISLANDS-

CITY           SKY/WX    TMP DP  RH WIND       PRES   REMARKS
GUAM AIRPORT   PTCLDY    81  79  94 NE6       29.83R
ANDERSEN AFB   LGT RAIN  79  77  94 NE16      29.83R
ROTA AIRPORT   MOCLDY    77  77 100 NE9       29.84R
TINIAN AP      MOCLDY    79  75  89 NE12      29.82R
SAIPAN AP      MOCLDY    79  77  94 NE14      29.83R

$$

PMZ161-171100-
REPUBLIC OF PALAU-

CITY           SKY/WX    TMP DP  RH WIND       PRES   REMARKS
KOROR AP       MOCLDY    82  79  89 CALM      29.77R HX  93
KOROR WSO      CLOUDY    84  79  84 CALM      29.78R HX  96

$$

PMZ171>174-171100-
FEDERATED STATES OF MICRONESIA-

CITY           SKY/WX    TMP DP  RH WIND       PRES   REMARKS
YAP AIRPORT    MOCLDY    81  75  83 VRB2      29.79R
CHUUK AP       LGT RAIN  77  75  94 CALM      29.81S
POHNPEI AP     NOT AVBL
POHNPEI WSO    CLOUDY    77  75  94 SE3       29.89R
KOSRAE AP      NOT AVBL

$$

PMZ181-171100-
REPUBLIC OF THE MARSHALL ISLANDS-

CITY           SKY/WX    TMP DP  RH WIND       PRES   REMARKS
KWAJALEIN AP   MOCLDY    82  73  74 E15       29.86S
MAJURO AP      NOT AVBL
MAJURO WSO     MOCLDY    81  75  83 E8        29.83S

$$




USA.gov is the U.S. government's official web portal to all federal, state and local government web resources and services.